owner,sensor,date,latitude,longitude,air_temperature,qcFlag 
TABS,ioos:station:wmo:42045:1,2004-03-01T00:09:00Z,26.2168,-96.4998,-999.0,22222222 
TABS,ioos:station:wmo:42045:1,2004-03-01T00:39:00Z,26.2168,-96.4998,-999.0,22222222 
TABS,ioos:station:wmo:42045:1,2004-03-01T01:09:00Z,26.2168,-96.4998,-999.0,22222222 
TABS,ioos:station:wmo:42045:1,2004-03-01T01:39:00Z,26.2168,-96.4998,-999.0,22222222 
TABS,ioos:station:wmo:42045:1,2004-03-01T02:09:00Z,26.2168,-96.4998,-999.0,22222222 
TABS,ioos:station:wmo:42045:1,2004-03-01T02:39:00Z,26.2168,-96.4998,-999.0,22222222 
TABS,ioos:station:wmo:42045:1,2004-03-01T03:09:00Z,26.2168,-96.4998,-999.0,22222222 
TABS,ioos:station:wmo:42045:1,2004-03-01T04:09:00Z,26.2168,-96.4998,-999.0,22222222 
TABS,ioos:station:wmo:42045:1,2004-03-01T04:39:00Z,26.2168,-96.4998,-999.0,22222222 
TABS,ioos:station:wmo:42045:1,2004-03-01T05:09:00Z,26.2168,-96.4998,-999.0,22222222 
TABS,ioos:station:wmo:42045:1,2004-03-01T05:39:00Z,26.2168,-96.4998,-999.0,22222222 
TABS,ioos:station:wmo:42045:1,2004-03-01T06:09:00Z,26.2168,-96.4998,-999.0,22222222 
TABS,ioos:station:wmo:42045:1,2004-03-01T06:39:00Z,26.2168,-96.4998,-999.0,22222222 
TABS,ioos:station:wmo:42045:1,2004-03-01T07:09:00Z,26.2168,-96.4998,-999.0,22222222 
TABS,ioos:station:wmo:42045:1,2004-03-01T07:39:00Z,26.2168,-96.4998,-999.0,22222222 
TABS,ioos:station:wmo:42045:1,2004-03-01T08:09:00Z,26.2168,-96.4998,-999.0,22222222 
TABS,ioos:station:wmo:42045:1,2004-03-01T08:39:00Z,26.2168,-96.4998,-999.0,22222222 
TABS,ioos:station:wmo:42045:1,2004-03-01T09:09:00Z,26.2168,-96.4998,-999.0,22222222 
TABS,ioos:station:wmo:42045:1,2004-03-01T09:39:00Z,26.2168,-96.4998,-999.0,22222222 
TABS,ioos:station:wmo:42045:1,2004-03-01T10:09:00Z,26.2168,-96.4998,-999.0,22222222 
TABS,ioos:station:wmo:42045:1,2004-03-01T10:39:00Z,26.2168,-96.4998,-999.0,22222222 
TABS,ioos:station:wmo:42045:1,2004-03-01T11:09:00Z,26.2168,-96.4998,-999.0,22222222 
TABS,ioos:station:wmo:42045:1,2004-03-01T11:39:00Z,26.2168,-96.4998,-999.0,22222222 
TABS,ioos:station:wmo:42045:1,2004-03-01T12:09:00Z,26.2168,-96.4998,-999.0,22222222 
TABS,ioos:station:wmo:42045:1,2004-03-01T12:39:00Z,26.2168,-96.4998,-999.0,22222222 
TABS,ioos:station:wmo:42045:1,2004-03-01T13:09:00Z,26.2168,-96.4998,-999.0,22222222 
TABS,ioos:station:wmo:42045:1,2004-03-01T13:39:00Z,26.2168,-96.4998,-999.0,22222222 
TABS,ioos:station:wmo:42045:1,2004-03-01T14:09:00Z,26.2168,-96.4998,-999.0,22222222 
TABS,ioos:station:wmo:42045:1,2004-03-01T14:39:00Z,26.2168,-96.4998,-999.0,22222222 
TABS,ioos:station:wmo:42045:1,2004-03-01T15:09:00Z,26.2168,-96.4998,-999.0,22222222 
TABS,ioos:station:wmo:42045:1,2004-03-01T16:09:00Z,26.2168,-96.4998,-999.0,22222222 
TABS,ioos:station:wmo:42045:1,2004-03-01T16:39:00Z,26.2168,-96.4998,-999.0,22222222 
TABS,ioos:station:wmo:42045:1,2004-03-01T17:09:00Z,26.2168,-96.4998,-999.0,22222222 
TABS,ioos:station:wmo:42045:1,2004-03-01T17:39:00Z,26.2168,-96.4998,-999.0,22222222 
TABS,ioos:station:wmo:42045:1,2004-03-01T18:09:00Z,26.2168,-96.4998,-999.0,22222222 
TABS,ioos:station:wmo:42045:1,2004-03-01T19:09:00Z,26.2168,-96.4998,-999.0,22222222 
TABS,ioos:station:wmo:42045:1,2004-03-01T19:39:00Z,26.2168,-96.4998,-999.0,22222222 
TABS,ioos:station:wmo:42045:1,2004-03-01T20:09:00Z,26.2168,-96.4998,-999.0,22222222 
TABS,ioos:station:wmo:42045:1,2004-03-01T20:39:00Z,26.2168,-96.4998,-999.0,22222222 
TABS,ioos:station:wmo:42045:1,2004-03-01T21:09:00Z,26.2168,-96.4998,-999.0,22222222 
TABS,ioos:station:wmo:42045:1,2004-03-01T22:09:00Z,26.2168,-96.4998,-999.0,22222222 
TABS,ioos:station:wmo:42045:1,2004-03-01T22:39:00Z,26.2168,-96.4998,-999.0,22222222 
TABS,ioos:station:wmo:42045:1,2004-03-01T23:09:00Z,26.2168,-96.4998,47.1,11144222 
TABS,ioos:station:wmo:42045:1,2004-03-01T23:39:00Z,26.2168,-96.4998,-999.0,22222222 
TABS,ioos:station:wmo:42045:1,2004-03-02T00:09:00Z,26.2168,-96.4998,29.0,11144222 
TABS,ioos:station:wmo:42045:1,2004-03-02T00:39:00Z,26.2168,-96.4998,39.5,11144222 
TABS,ioos:station:wmo:42045:1,2004-03-02T01:09:00Z,26.2168,-96.4998,-999.0,22222222 
TABS,ioos:station:wmo:42045:1,2004-03-02T01:39:00Z,26.2168,-96.4998,2.0,11144222 
TABS,ioos:station:wmo:42045:1,2004-03-02T02:09:00Z,26.2168,-96.4998,-999.0,22222222 
TABS,ioos:station:wmo:42045:1,2004-03-02T02:39:00Z,26.2168,-96.4998,-999.0,22222222 
TABS,ioos:station:wmo:42045:1,2004-03-02T03:09:00Z,26.2168,-96.4998,-999.0,22222222 
TABS,ioos:station:wmo:42045:1,2004-03-02T03:39:00Z,26.2168,-96.4998,-999.0,22222222 
TABS,ioos:station:wmo:42045:1,2004-03-02T04:09:00Z,26.2168,-96.4998,-999.0,22222222 
TABS,ioos:station:wmo:42045:1,2004-03-02T04:39:00Z,26.2168,-96.4998,-999.0,22222222 
TABS,ioos:station:wmo:42045:1,2004-03-02T05:09:00Z,26.2168,-96.4998,-999.0,22222222 
TABS,ioos:station:wmo:42045:1,2004-03-02T05:39:00Z,26.2168,-96.4998,-999.0,22222222 
TABS,ioos:station:wmo:42045:1,2004-03-02T06:09:00Z,26.2168,-96.4998,-999.0,22222222 
TABS,ioos:station:wmo:42045:1,2004-03-02T06:39:00Z,26.2168,-96.4998,-999.0,22222222 
TABS,ioos:station:wmo:42045:1,2004-03-02T07:09:00Z,26.2168,-96.4998,-999.0,22222222 
TABS,ioos:station:wmo:42045:1,2004-03-02T07:39:00Z,26.2168,-96.4998,-999.0,22222222 
TABS,ioos:station:wmo:42045:1,2004-03-02T08:09:00Z,26.2168,-96.4998,-999.0,22222222 
TABS,ioos:station:wmo:42045:1,2004-03-02T08:39:00Z,26.2168,-96.4998,-999.0,22222222 
TABS,ioos:station:wmo:42045:1,2004-03-02T09:09:00Z,26.2168,-96.4998,-999.0,22222222 
TABS,ioos:station:wmo:42045:1,2004-03-02T09:39:00Z,26.2168,-96.4998,48.4,11144222 
TABS,ioos:station:wmo:42045:1,2004-03-02T10:09:00Z,26.2168,-96.4998,-999.0,22222222 
TABS,ioos:station:wmo:42045:1,2004-03-02T10:39:00Z,26.2168,-96.4998,-999.0,22222222 
TABS,ioos:station:wmo:42045:1,2004-03-02T11:09:00Z,26.2168,-96.4998,48.2,11144222 
TABS,ioos:station:wmo:42045:1,2004-03-02T11:39:00Z,26.2168,-96.4998,48.2,11144222 
TABS,ioos:station:wmo:42045:1,2004-03-02T12:09:00Z,26.2168,-96.4998,49.5,11144222 
TABS,ioos:station:wmo:42045:1,2004-03-02T12:39:00Z,26.2168,-96.4998,49.6,11144222 
TABS,ioos:station:wmo:42045:1,2004-03-02T13:09:00Z,26.2168,-96.4998,49.2,11144222 
TABS,ioos:station:wmo:42045:1,2004-03-02T13:39:00Z,26.2168,-96.4998,48.8,11144222 
TABS,ioos:station:wmo:42045:1,2004-03-02T14:09:00Z,26.2168,-96.4998,47.2,11144222 
TABS,ioos:station:wmo:42045:1,2004-03-02T14:39:00Z,26.2168,-96.4998,45.1,11144222 
TABS,ioos:station:wmo:42045:1,2004-03-02T15:09:00Z,26.2168,-96.4998,45.0,11144222 
TABS,ioos:station:wmo:42045:1,2004-03-02T16:09:00Z,26.2168,-96.4998,46.4,11144222 
TABS,ioos:station:wmo:42045:1,2004-03-02T16:39:00Z,26.2168,-96.4998,46.4,11144222 
TABS,ioos:station:wmo:42045:1,2004-03-02T17:09:00Z,26.2168,-96.4998,48.2,11144222 
TABS,ioos:station:wmo:42045:1,2004-03-02T17:39:00Z,26.2168,-96.4998,43.5,11144222 
TABS,ioos:station:wmo:42045:1,2004-03-02T18:09:00Z,26.2168,-96.4998,45.0,11144222 
TABS,ioos:station:wmo:42045:1,2004-03-02T19:09:00Z,26.2168,-96.4998,48.4,11144222 
TABS,ioos:station:wmo:42045:1,2004-03-02T19:39:00Z,26.2168,-96.4998,46.8,11144222 
TABS,ioos:station:wmo:42045:1,2004-03-02T20:09:00Z,26.2168,-96.4998,48.8,11144222 
TABS,ioos:station:wmo:42045:1,2004-03-02T20:39:00Z,26.2168,-96.4998,47.8,11144222 
TABS,ioos:station:wmo:42045:1,2004-03-02T21:09:00Z,26.2168,-96.4998,47.8,11144222 
TABS,ioos:station:wmo:42045:1,2004-03-02T22:09:00Z,26.2168,-96.4998,44.8,11144222 
TABS,ioos:station:wmo:42045:1,2004-03-02T22:39:00Z,26.2168,-96.4998,43.5,11144222 
TABS,ioos:station:wmo:42045:1,2004-03-02T23:09:00Z,26.2168,-96.4998,41.7,11144222 
TABS,ioos:station:wmo:42045:1,2004-03-02T23:39:00Z,26.2168,-96.4998,40.2,11144222 
TABS,ioos:station:wmo:42045:1,2004-03-03T00:09:00Z,26.2168,-96.4998,40.6,11144222 
TABS,ioos:station:wmo:42045:1,2004-03-03T00:39:00Z,26.2168,-96.4998,41.0,11144222 
TABS,ioos:station:wmo:42045:1,2004-03-03T01:09:00Z,26.2168,-96.4998,40.3,11144222 
TABS,ioos:station:wmo:42045:1,2004-03-03T01:39:00Z,26.2168,-96.4998,39.3,11144222 
TABS,ioos:station:wmo:42045:1,2004-03-03T02:09:00Z,26.2168,-96.4998,38.5,11144222 
TABS,ioos:station:wmo:42045:1,2004-03-03T02:39:00Z,26.2168,-96.4998,38.8,11144222 
TABS,ioos:station:wmo:42045:1,2004-03-03T03:09:00Z,26.2168,-96.4998,38.7,11144222 
TABS,ioos:station:wmo:42045:1,2004-03-03T03:39:00Z,26.2168,-96.4998,35.6,11144222 
TABS,ioos:station:wmo:42045:1,2004-03-03T04:09:00Z,26.2168,-96.4998,35.9,11144222 
TABS,ioos:station:wmo:42045:1,2004-03-03T04:39:00Z,26.2168,-96.4998,35.3,11144222 
TABS,ioos:station:wmo:42045:1,2004-03-03T05:09:00Z,26.2168,-96.4998,36.5,11144222 
TABS,ioos:station:wmo:42045:1,2004-03-03T05:39:00Z,26.2168,-96.4998,36.4,11144222 
TABS,ioos:station:wmo:42045:1,2004-03-03T06:09:00Z,26.2168,-96.4998,35.7,11144222 
TABS,ioos:station:wmo:42045:1,2004-03-03T06:39:00Z,26.2168,-96.4998,40.3,11144222 
TABS,ioos:station:wmo:42045:1,2004-03-03T07:09:00Z,26.2168,-96.4998,35.2,11144222 
TABS,ioos:station:wmo:42045:1,2004-03-03T07:39:00Z,26.2168,-96.4998,38.1,11144222 
TABS,ioos:station:wmo:42045:1,2004-03-03T08:09:00Z,26.2168,-96.4998,41.4,11144222 
TABS,ioos:station:wmo:42045:1,2004-03-03T08:39:00Z,26.2168,-96.4998,41.6,11144222 
TABS,ioos:station:wmo:42045:1,2004-03-03T09:09:00Z,26.2168,-96.4998,43.3,11144222 
TABS,ioos:station:wmo:42045:1,2004-03-03T09:39:00Z,26.2168,-96.4998,49.2,11144222 
TABS,ioos:station:wmo:42045:1,2004-03-03T10:09:00Z,26.2168,-96.4998,38.8,11144222 
TABS,ioos:station:wmo:42045:1,2004-03-03T10:39:00Z,26.2168,-96.4998,0.5,11144222 
TABS,ioos:station:wmo:42045:1,2004-03-03T11:09:00Z,26.2168,-96.4998,-1.5,11144222 
TABS,ioos:station:wmo:42045:1,2004-03-03T11:39:00Z,26.2168,-96.4998,-14.4,11144222 
TABS,ioos:station:wmo:42045:1,2004-03-03T12:09:00Z,26.2168,-96.4998,-21.7,11144222 
TABS,ioos:station:wmo:42045:1,2004-03-03T12:39:00Z,26.2168,-96.4998,-18.0,11144222 
TABS,ioos:station:wmo:42045:1,2004-03-03T13:09:00Z,26.2168,-96.4998,-11.3,11144222 
TABS,ioos:station:wmo:42045:1,2004-03-03T13:39:00Z,26.2168,-96.4998,-13.6,11144222 
TABS,ioos:station:wmo:42045:1,2004-03-03T14:09:00Z,26.2168,-96.4998,-17.9,11144222 
TABS,ioos:station:wmo:42045:1,2004-03-03T14:39:00Z,26.2168,-96.4998,-13.7,11144222 
TABS,ioos:station:wmo:42045:1,2004-03-03T15:09:00Z,26.2168,-96.4998,-17.0,11144222 
TABS,ioos:station:wmo:42045:1,2004-03-03T15:39:00Z,26.2168,-96.4998,-15.5,11144222 
TABS,ioos:station:wmo:42045:1,2004-03-03T16:09:00Z,26.2168,-96.4998,0.9,11144222 
TABS,ioos:station:wmo:42045:1,2004-03-03T16:39:00Z,26.2168,-96.4998,-3.9,11144222 
TABS,ioos:station:wmo:42045:1,2004-03-03T17:09:00Z,26.2168,-96.4998,-13.2,11144222 
TABS,ioos:station:wmo:42045:1,2004-03-03T17:39:00Z,26.2168,-96.4998,-15.5,11144222 
TABS,ioos:station:wmo:42045:1,2004-03-03T18:09:00Z,26.2168,-96.4998,-18.8,11144222 
TABS,ioos:station:wmo:42045:1,2004-03-03T18:39:00Z,26.2168,-96.4998,-16.8,11144222 
TABS,ioos:station:wmo:42045:1,2004-03-03T19:09:00Z,26.2168,-96.4998,-16.3,11144222 
TABS,ioos:station:wmo:42045:1,2004-03-03T19:39:00Z,26.2168,-96.4998,-16.5,11144222 
TABS,ioos:station:wmo:42045:1,2004-03-03T20:09:00Z,26.2168,-96.4998,7.8,11144222 
TABS,ioos:station:wmo:42045:1,2004-03-03T20:39:00Z,26.2168,-96.4998,22.5,11144222 
TABS,ioos:station:wmo:42045:1,2004-03-03T21:09:00Z,26.2168,-96.4998,44.9,11144222 
TABS,ioos:station:wmo:42045:1,2004-03-03T21:39:00Z,26.2168,-96.4998,25.6,11144222 
TABS,ioos:station:wmo:42045:1,2004-03-03T22:09:00Z,26.2168,-96.4998,38.7,11144222 
TABS,ioos:station:wmo:42045:1,2004-03-03T22:39:00Z,26.2168,-96.4998,-14.0,11144222 
TABS,ioos:station:wmo:42045:1,2004-03-03T23:09:00Z,26.2168,-96.4998,-0.8,11144222 
TABS,ioos:station:wmo:42045:1,2004-03-03T23:39:00Z,26.2168,-96.4998,-10.3,11144222 
TABS,ioos:station:wmo:42045:1,2004-03-04T00:09:00Z,26.2168,-96.4998,-13.6,11144222 
TABS,ioos:station:wmo:42045:1,2004-03-04T00:39:00Z,26.2168,-96.4998,-22.9,11144222 
TABS,ioos:station:wmo:42045:1,2004-03-04T01:09:00Z,26.2168,-96.4998,49.7,11144222 
TABS,ioos:station:wmo:42045:1,2004-03-04T01:39:00Z,26.2168,-96.4998,4.7,11144222 
TABS,ioos:station:wmo:42045:1,2004-03-04T02:09:00Z,26.2168,-96.4998,-16.8,11144222 
TABS,ioos:station:wmo:42045:1,2004-03-04T02:39:00Z,26.2168,-96.4998,-14.1,11144222 
TABS,ioos:station:wmo:42045:1,2004-03-04T03:09:00Z,26.2168,-96.4998,-8.2,11144222 
TABS,ioos:station:wmo:42045:1,2004-03-04T03:39:00Z,26.2168,-96.4998,-6.7,11144222 
TABS,ioos:station:wmo:42045:1,2004-03-04T04:09:00Z,26.2168,-96.4998,-11.9,11144222 
TABS,ioos:station:wmo:42045:1,2004-03-04T04:39:00Z,26.2168,-96.4998,-24.8,11144222 
TABS,ioos:station:wmo:42045:1,2004-03-04T05:09:00Z,26.2168,-96.4998,-22.1,11144222 
TABS,ioos:station:wmo:42045:1,2004-03-04T05:39:00Z,26.2168,-96.4998,-28.0,11144222 
TABS,ioos:station:wmo:42045:1,2004-03-04T06:09:00Z,26.2168,-96.4998,-21.1,11144222 
TABS,ioos:station:wmo:42045:1,2004-03-04T06:39:00Z,26.2168,-96.4998,-19.6,11144222 
TABS,ioos:station:wmo:42045:1,2004-03-04T07:09:00Z,26.2168,-96.4998,-0.5,11144222 
TABS,ioos:station:wmo:42045:1,2004-03-04T07:39:00Z,26.2168,-96.4998,-13.3,11144222 
TABS,ioos:station:wmo:42045:1,2004-03-04T08:09:00Z,26.2168,-96.4998,-3.4,11144222 
TABS,ioos:station:wmo:42045:1,2004-03-04T08:39:00Z,26.2168,-96.4998,-9.7,11144222 
TABS,ioos:station:wmo:42045:1,2004-03-04T09:09:00Z,26.2168,-96.4998,-8.8,11144222 
TABS,ioos:station:wmo:42045:1,2004-03-04T09:39:00Z,26.2168,-96.4998,-13.1,11144222 
TABS,ioos:station:wmo:42045:1,2004-03-04T10:09:00Z,26.2168,-96.4998,-12.0,11144222 
TABS,ioos:station:wmo:42045:1,2004-03-04T10:39:00Z,26.2168,-96.4998,-13.4,11144222 
TABS,ioos:station:wmo:42045:1,2004-03-04T11:09:00Z,26.2168,-96.4998,-9.7,11144222 
TABS,ioos:station:wmo:42045:1,2004-03-04T11:39:00Z,26.2168,-96.4998,-17.3,11144222 
TABS,ioos:station:wmo:42045:1,2004-03-04T12:09:00Z,26.2168,-96.4998,-10.6,11144222 
TABS,ioos:station:wmo:42045:1,2004-03-04T12:39:00Z,26.2168,-96.4998,-28.1,11144222 
TABS,ioos:station:wmo:42045:1,2004-03-04T13:09:00Z,26.2168,-96.4998,-15.3,11144222 
TABS,ioos:station:wmo:42045:1,2004-03-04T13:39:00Z,26.2168,-96.4998,-9.8,11144222 
TABS,ioos:station:wmo:42045:1,2004-03-04T14:09:00Z,26.2168,-96.4998,-14.0,11144222 
TABS,ioos:station:wmo:42045:1,2004-03-04T14:39:00Z,26.2168,-96.4998,31.6,11144222 
TABS,ioos:station:wmo:42045:1,2004-03-04T15:09:00Z,26.2168,-96.4998,-6.2,11144222 
TABS,ioos:station:wmo:42045:1,2004-03-04T15:39:00Z,26.2168,-96.4998,1.3,11144222 
TABS,ioos:station:wmo:42045:1,2004-03-04T16:09:00Z,26.2168,-96.4998,-999.0,22222222 
TABS,ioos:station:wmo:42045:1,2004-03-04T16:39:00Z,26.2168,-96.4998,-999.0,22222222 
TABS,ioos:station:wmo:42045:1,2004-03-04T17:09:00Z,26.2168,-96.4998,37.4,11144222 
TABS,ioos:station:wmo:42045:1,2004-03-04T17:39:00Z,26.2168,-96.4998,-5.8,11144222 
TABS,ioos:station:wmo:42045:1,2004-03-04T18:09:00Z,26.2168,-96.4998,-1.7,11144222 
TABS,ioos:station:wmo:42045:1,2004-03-04T18:39:00Z,26.2168,-96.4998,32.0,11144222 
TABS,ioos:station:wmo:42045:1,2004-03-04T19:09:00Z,26.2168,-96.4998,21.5,11144222 
TABS,ioos:station:wmo:42045:1,2004-03-04T19:39:00Z,26.2168,-96.4998,28.7,11144222 
TABS,ioos:station:wmo:42045:1,2004-03-04T20:09:00Z,26.2168,-96.4998,-999.0,22222222 
TABS,ioos:station:wmo:42045:1,2004-03-04T20:39:00Z,26.2168,-96.4998,16.4,11144222 
TABS,ioos:station:wmo:42045:1,2004-03-04T21:09:00Z,26.2168,-96.4998,15.6,11144222 
TABS,ioos:station:wmo:42045:1,2004-03-04T21:39:00Z,26.2168,-96.4998,24.9,11144222 
TABS,ioos:station:wmo:42045:1,2004-03-04T22:09:00Z,26.2168,-96.4998,21.3,11144222 
TABS,ioos:station:wmo:42045:1,2004-03-04T22:39:00Z,26.2168,-96.4998,-999.0,22222222 
TABS,ioos:station:wmo:42045:1,2004-03-04T23:09:00Z,26.2168,-96.4998,19.5,11144222 
TABS,ioos:station:wmo:42045:1,2004-03-04T23:39:00Z,26.2168,-96.4998,33.5,11144222 
TABS,ioos:station:wmo:42045:1,2004-03-05T00:09:00Z,26.2168,-96.4998,21.8,11144222 
TABS,ioos:station:wmo:42045:1,2004-03-05T00:39:00Z,26.2168,-96.4998,13.5,11144222 
TABS,ioos:station:wmo:42045:1,2004-03-05T01:09:00Z,26.2168,-96.4998,-0.8,11144222 
TABS,ioos:station:wmo:42045:1,2004-03-05T01:39:00Z,26.2168,-96.4998,-6.7,11144222 
TABS,ioos:station:wmo:42045:1,2004-03-05T02:09:00Z,26.2168,-96.4998,-11.9,11144222 
TABS,ioos:station:wmo:42045:1,2004-03-05T02:39:00Z,26.2168,-96.4998,-14.8,11144222 
TABS,ioos:station:wmo:42045:1,2004-03-05T03:09:00Z,26.2168,-96.4998,-12.3,11144222 
TABS,ioos:station:wmo:42045:1,2004-03-05T03:39:00Z,26.2168,-96.4998,32.9,11144222 
TABS,ioos:station:wmo:42045:1,2004-03-05T04:09:00Z,26.2168,-96.4998,16.4,11144222 
TABS,ioos:station:wmo:42045:1,2004-03-05T04:39:00Z,26.2168,-96.4998,-13.0,11144222 
TABS,ioos:station:wmo:42045:1,2004-03-05T05:09:00Z,26.2168,-96.4998,5.6,11144222 
TABS,ioos:station:wmo:42045:1,2004-03-05T05:39:00Z,26.2168,-96.4998,-21.8,11144222 
TABS,ioos:station:wmo:42045:1,2004-03-05T06:09:00Z,26.2168,-96.4998,1.6,11144222 
TABS,ioos:station:wmo:42045:1,2004-03-05T06:39:00Z,26.2168,-96.4998,-5.8,11144222 
TABS,ioos:station:wmo:42045:1,2004-03-05T07:09:00Z,26.2168,-96.4998,17.6,11144222 
TABS,ioos:station:wmo:42045:1,2004-03-05T07:39:00Z,26.2168,-96.4998,-0.6,11144222 
TABS,ioos:station:wmo:42045:1,2004-03-05T08:09:00Z,26.2168,-96.4998,18.3,11144222 
TABS,ioos:station:wmo:42045:1,2004-03-05T08:39:00Z,26.2168,-96.4998,33.6,11144222 
TABS,ioos:station:wmo:42045:1,2004-03-05T09:09:00Z,26.2168,-96.4998,-17.6,11144222 
TABS,ioos:station:wmo:42045:1,2004-03-05T09:39:00Z,26.2168,-96.4998,-19.8,11144222 
TABS,ioos:station:wmo:42045:1,2004-03-05T10:09:00Z,26.2168,-96.4998,-12.5,11144222 
TABS,ioos:station:wmo:42045:1,2004-03-05T10:39:00Z,26.2168,-96.4998,-16.3,11144222 
TABS,ioos:station:wmo:42045:1,2004-03-05T11:09:00Z,26.2168,-96.4998,-16.5,11144222 
TABS,ioos:station:wmo:42045:1,2004-03-05T11:39:00Z,26.2168,-96.4998,-16.6,11144222 
TABS,ioos:station:wmo:42045:1,2004-03-05T12:09:00Z,26.2168,-96.4998,-15.0,11144222 
TABS,ioos:station:wmo:42045:1,2004-03-05T12:39:00Z,26.2168,-96.4998,-8.1,11144222 
TABS,ioos:station:wmo:42045:1,2004-03-05T13:09:00Z,26.2168,-96.4998,-7.3,11144222 
TABS,ioos:station:wmo:42045:1,2004-03-05T13:39:00Z,26.2168,-96.4998,-22.6,11144222 
TABS,ioos:station:wmo:42045:1,2004-03-05T14:09:00Z,26.2168,-96.4998,-18.2,11144222 
TABS,ioos:station:wmo:42045:1,2004-03-05T14:39:00Z,26.2168,-96.4998,-18.8,11144222 
TABS,ioos:station:wmo:42045:1,2004-03-05T15:09:00Z,26.2168,-96.4998,-13.6,11144222 
TABS,ioos:station:wmo:42045:1,2004-03-05T15:39:00Z,26.2168,-96.4998,-17.1,11144222 
TABS,ioos:station:wmo:42045:1,2004-03-05T16:09:00Z,26.2168,-96.4998,-12.8,11144222 
TABS,ioos:station:wmo:42045:1,2004-03-05T16:39:00Z,26.2168,-96.4998,-14.8,11144222 
TABS,ioos:station:wmo:42045:1,2004-03-05T17:09:00Z,26.2168,-96.4998,-12.8,11144222 
TABS,ioos:station:wmo:42045:1,2004-03-05T17:39:00Z,26.2168,-96.4998,-16.6,11144222 
TABS,ioos:station:wmo:42045:1,2004-03-05T18:09:00Z,26.2168,-96.4998,-11.8,11144222 
TABS,ioos:station:wmo:42045:1,2004-03-05T18:39:00Z,26.2168,-96.4998,-6.1,11144222 
TABS,ioos:station:wmo:42045:1,2004-03-05T19:09:00Z,26.2168,-96.4998,-5.1,11144222 
TABS,ioos:station:wmo:42045:1,2004-03-05T19:39:00Z,26.2168,-96.4998,1.0,11144222 
TABS,ioos:station:wmo:42045:1,2004-03-05T20:09:00Z,26.2168,-96.4998,-17.3,11144222 
TABS,ioos:station:wmo:42045:1,2004-03-05T20:39:00Z,26.2168,-96.4998,3.0,11144222 
TABS,ioos:station:wmo:42045:1,2004-03-05T21:09:00Z,26.2168,-96.4998,15.5,11144222 
TABS,ioos:station:wmo:42045:1,2004-03-05T21:39:00Z,26.2168,-96.4998,3.9,11144222 
TABS,ioos:station:wmo:42045:1,2004-03-05T22:09:00Z,26.2168,-96.4998,2.0,11144222 
TABS,ioos:station:wmo:42045:1,2004-03-05T22:39:00Z,26.2168,-96.4998,-9.8,11144222 
TABS,ioos:station:wmo:42045:1,2004-03-05T23:09:00Z,26.2168,-96.4998,-4.1,11144222 
TABS,ioos:station:wmo:42045:1,2004-03-05T23:39:00Z,26.2168,-96.4998,-2.1,11144222 
TABS,ioos:station:wmo:42045:1,2004-03-06T00:09:00Z,26.2168,-96.4998,-7.0,11144222 
TABS,ioos:station:wmo:42045:1,2004-03-06T00:39:00Z,26.2168,-96.4998,17.9,11144222 
TABS,ioos:station:wmo:42045:1,2004-03-06T01:09:00Z,26.2168,-96.4998,-16.2,11144222 
TABS,ioos:station:wmo:42045:1,2004-03-06T01:39:00Z,26.2168,-96.4998,-18.1,11144222 
TABS,ioos:station:wmo:42045:1,2004-03-06T02:09:00Z,26.2168,-96.4998,24.4,11144222 
TABS,ioos:station:wmo:42045:1,2004-03-06T02:39:00Z,26.2168,-96.4998,-11.6,11144222 
TABS,ioos:station:wmo:42045:1,2004-03-06T03:09:00Z,26.2168,-96.4998,13.3,11144222 
TABS,ioos:station:wmo:42045:1,2004-03-06T03:39:00Z,26.2168,-96.4998,36.3,11144222 
TABS,ioos:station:wmo:42045:1,2004-03-06T04:09:00Z,26.2168,-96.4998,31.3,11144222 
TABS,ioos:station:wmo:42045:1,2004-03-06T04:39:00Z,26.2168,-96.4998,46.4,11144222 
TABS,ioos:station:wmo:42045:1,2004-03-06T05:09:00Z,26.2168,-96.4998,45.0,11144222 
TABS,ioos:station:wmo:42045:1,2004-03-06T05:39:00Z,26.2168,-96.4998,49.4,11144222 
TABS,ioos:station:wmo:42045:1,2004-03-06T06:09:00Z,26.2168,-96.4998,42.2,11144222 
TABS,ioos:station:wmo:42045:1,2004-03-06T06:39:00Z,26.2168,-96.4998,38.0,11144222 
TABS,ioos:station:wmo:42045:1,2004-03-06T07:09:00Z,26.2168,-96.4998,40.9,11144222 
TABS,ioos:station:wmo:42045:1,2004-03-06T07:39:00Z,26.2168,-96.4998,39.4,11144222 
TABS,ioos:station:wmo:42045:1,2004-03-06T08:09:00Z,26.2168,-96.4998,38.0,11144222 
TABS,ioos:station:wmo:42045:1,2004-03-06T08:39:00Z,26.2168,-96.4998,35.9,11144222 
TABS,ioos:station:wmo:42045:1,2004-03-06T09:09:00Z,26.2168,-96.4998,32.5,11144222 
TABS,ioos:station:wmo:42045:1,2004-03-06T09:39:00Z,26.2168,-96.4998,31.7,11144222 
TABS,ioos:station:wmo:42045:1,2004-03-06T10:09:00Z,26.2168,-96.4998,33.7,11144222 
TABS,ioos:station:wmo:42045:1,2004-03-06T10:39:00Z,26.2168,-96.4998,34.0,11144222 
TABS,ioos:station:wmo:42045:1,2004-03-06T11:09:00Z,26.2168,-96.4998,30.4,11144222 
TABS,ioos:station:wmo:42045:1,2004-03-06T11:39:00Z,26.2168,-96.4998,37.0,11144222 
TABS,ioos:station:wmo:42045:1,2004-03-06T12:09:00Z,26.2168,-96.4998,38.3,11144222 
TABS,ioos:station:wmo:42045:1,2004-03-06T12:39:00Z,26.2168,-96.4998,36.7,11144222 
TABS,ioos:station:wmo:42045:1,2004-03-06T13:09:00Z,26.2168,-96.4998,36.7,11144222 
TABS,ioos:station:wmo:42045:1,2004-03-06T13:39:00Z,26.2168,-96.4998,35.5,11144222 
TABS,ioos:station:wmo:42045:1,2004-03-06T14:09:00Z,26.2168,-96.4998,38.5,11144222 
TABS,ioos:station:wmo:42045:1,2004-03-06T14:39:00Z,26.2168,-96.4998,42.0,11144222 
TABS,ioos:station:wmo:42045:1,2004-03-06T15:09:00Z,26.2168,-96.4998,44.7,11144222 
TABS,ioos:station:wmo:42045:1,2004-03-06T15:39:00Z,26.2168,-96.4998,42.9,11144222 
TABS,ioos:station:wmo:42045:1,2004-03-06T16:09:00Z,26.2168,-96.4998,35.9,11144222 
TABS,ioos:station:wmo:42045:1,2004-03-06T16:39:00Z,26.2168,-96.4998,43.7,11144222 
TABS,ioos:station:wmo:42045:1,2004-03-06T17:09:00Z,26.2168,-96.4998,42.0,11144222 
TABS,ioos:station:wmo:42045:1,2004-03-06T17:39:00Z,26.2168,-96.4998,42.4,11144222 
TABS,ioos:station:wmo:42045:1,2004-03-06T18:09:00Z,26.2168,-96.4998,42.0,11144222 
TABS,ioos:station:wmo:42045:1,2004-03-06T18:39:00Z,26.2168,-96.4998,43.2,11144222 
TABS,ioos:station:wmo:42045:1,2004-03-06T19:09:00Z,26.2168,-96.4998,46.2,11144222 
TABS,ioos:station:wmo:42045:1,2004-03-06T19:39:00Z,26.2168,-96.4998,34.8,11144222 
TABS,ioos:station:wmo:42045:1,2004-03-06T20:09:00Z,26.2168,-96.4998,35.0,11144222 
TABS,ioos:station:wmo:42045:1,2004-03-06T20:39:00Z,26.2168,-96.4998,33.7,11144222 
TABS,ioos:station:wmo:42045:1,2004-03-06T21:09:00Z,26.2168,-96.4998,41.5,11144222 
TABS,ioos:station:wmo:42045:1,2004-03-06T21:39:00Z,26.2168,-96.4998,36.4,11144222 
TABS,ioos:station:wmo:42045:1,2004-03-06T22:09:00Z,26.2168,-96.4998,40.7,11144222 
TABS,ioos:station:wmo:42045:1,2004-03-06T22:39:00Z,26.2168,-96.4998,31.2,11144222 
TABS,ioos:station:wmo:42045:1,2004-03-06T23:09:00Z,26.2168,-96.4998,45.8,11144222 
TABS,ioos:station:wmo:42045:1,2004-03-06T23:39:00Z,26.2168,-96.4998,35.6,11144222 
TABS,ioos:station:wmo:42045:1,2004-03-07T00:09:00Z,26.2168,-96.4998,33.3,11144222 
TABS,ioos:station:wmo:42045:1,2004-03-07T00:39:00Z,26.2168,-96.4998,33.4,11144222 
TABS,ioos:station:wmo:42045:1,2004-03-07T01:09:00Z,26.2168,-96.4998,20.9,11144222 
TABS,ioos:station:wmo:42045:1,2004-03-07T01:39:00Z,26.2168,-96.4998,29.4,11144222 
TABS,ioos:station:wmo:42045:1,2004-03-07T02:09:00Z,26.2168,-96.4998,35.6,11144222 